Inscriptos

800 Electronico
Fecha Serie Viento Presión Humedad Temperatura
05-06-2016 Final_A
Andarivel Nombre Dia Mes Año Equipo Mejor Marca
Martino Gerardo 10 12 1992 FLRES - 1.52.79
Moreira Jairo 07 03 1995 ENP - 1.56.73
Mora Pablo 19 3 1979 DSP - 1.59.50
Larrosa Daniel 16 2 1991 AND - 1.59.52
Gonzalez Waldemar 30 11 1998 FLRES - 1.59.62
Gargallo Matias 22 12 1998 CAPOA - 2.00.49
Bentancour Adrian 29 8 1994 DSP - 2.01.29
Arbiza Juan 5 11 1992 CAPOA - 2.02.07
Alvarez Gustavo 24 7 1999 PAY - 2.03.01
Trias Pablo 28 8 1980 NAC - 2.03.77
Flores Guillermo 27 8 1985 ATE - 2.04.39
Gularte Rodrigo 29 3 2000 APRAD - 2.04.93
Sosa Cristofer 3 8 1994 CAPOA - 2.05.99
Antunez Alexander 11 10 1989 FAM - 2.06.13
Caceres Nicolas 2 1 1987 DSP - 2.06.78
Castillo Alejandro 20 6 1999 VO2 - 2.06.80
Soria Matias 11 2 1997 CAPOA - 2.07.94
Acuña Juan Manuel 2 11 1996 FAD - 2.08.19
Rodriguez Joaquin 4 11 1993 NAC - 2.08.33
Suhr Julio 5 3 1995 NAC - 2.10.50
Moncherr Luciano 24 7 1999 SACUD - 2.10.65
Acordagoitia Martin 26 3 2000 CAPOA - 2.10.68
Castaño Gonzalo 12 4 1994 CAPOA - 2.11.25
Bonner Juan 15 11 1982 FAM - 2.11.80
Mateos Cristian 23 11 2001 SACUD - 2.12.42
Lorenzo Elian 26 3 2000 CAPOA - 2.13.05
De Los Santos Joaquin 24 9 1999 DSP - 2.13.08
Saragüella Facundo 23 5 1998 CAPOA - 2.13.51
Rolon Paulo 23 3 1998 FEDAC - 2.14.20
Ferreira Francisco 22 5 1999 SACUD - 2.16.49
Gronrroz Ciro 5 10 2000 DSP - 2.16.83
De Oliveira Alejandro 13 10 1999 SACUD - 2.17.15
Almanso Ismael 17 4 1999 SACU - 2.17.98
Sauczuk Ignacio 25 12 2000 SEC - 2.20.43
Andrade Nahuel 3 10 1999 SACUD - 2.20.98
Campopiano Lucas 25 8 1999 AGUIL - 2.30.78
9.99.99
Nievas Julio 14 6 1998 AGUIL - 9.99.99
Aguirre Carlos 7 2 1981 NAC - 9.99.99
Fernandez Ezequiel 13 11 2001 FRN - 9.99.99
Aggierni Luca 31 7 1997 CAPOA - 9.99.99
Perdomo Alexis 05 01 1992 - - 9.99.99
Machado Reinaldo 2 8 1998 LGA - 9.99.99
Silvera Antonhy 8 7 1999 LGA - 9.99.99
Santos Facundo 23 9 2002 AGUIL - 9.99.99